Home > Weather > Flint > Past weeks

Flag for USA Past Weather in Flint, Michigan, USA — Yesterday and Last 2 Weeks

Now
86 °F

Passing clouds.


Feels Like: 85 °F
Forecast: 64 / 91 °F
Wind: 5 mph from West

Location: Bishop International Airport

Current Time: Jul 26, 2016 at 2:14:34 PM

Latest Report: Jul 26, 2016 at 1:53 PM


Visibility: 10 mi

Pressure: 30.02 "Hg

Humidity: 40%

Dew Point: 59 °F

Location of FlintLocation

Past Weather in Flint — Graph

°F

Flint Temperature Yesterday

Maximum temperature yesterday: 92 °F (at 3:53 PM)
Minimum temperature yesterday: 73 °F (at 11:53 PM)
Average temperature yesterday: 84 °F

High & Low Weather Summary for the Past Weeks

 TemperatureHumidityPressure
High97 °F (Jul 22, 2:53 PM)90% (Jul 23, 4:55 AM)30.26 "Hg (Jul 23, 4:55 AM)
Low55 °F (Jul 17, 4:53 AM)23% (Jul 23, 2:53 PM)29.75 "Hg (Jul 14, 3:53 AM)
Average79 °F59%29.99 "Hg
* Reported Jul 11 12:53 PM — Jul 26 12:53 PM, Flint, Weather by CustomWeather, © 2016

Note: Actual official high and low records may vary slightly from our data, if they occured in-between our weather recording intervals... More about our weather records

Advertising

Flint Weather History for the Previous 24 Hours

Scroll right to see more
 ConditionsComfort  
Time TempWeatherWind HumidityBarometerVisibility
12:53 PM
Tue, Jul 26
85 °FScattered clouds.No wind43%30.04 "Hg10 mi
11:53 AM85 °FSunny.5 mph43%30.05 "Hg10 mi
10:53 AM82 °FSunny.N/A49%30.05 "Hg10 mi
9:53 AM80 °FSunny.3 mph52%30.06 "Hg10 mi
8:53 AM76 °FSunny.No wind62%30.06 "Hg10 mi
7:53 AM68 °FSunny.No wind82%30.05 "Hg10 mi
6:53 AM62 °FClear.No wind86%30.05 "Hg10 mi
5:53 AM62 °FClear.No wind86%30.03 "Hg10 mi
4:53 AM62 °FClear.No wind86%30.02 "Hg10 mi
3:53 AM64 °FClear.3 mph84%30.01 "Hg10 mi
2:53 AM66 °FClear.No wind81%30.00 "Hg10 mi
1:53 AM69 °FClear.5 mph73%30.00 "Hg10 mi
12:53 AM73 °FClear.3 mph64%29.98 "Hg10 mi
11:53 PM
Mon, Jul 25
73 °FClear.5 mph64%29.97 "Hg10 mi
10:53 PM76 °FClear.7 mph56%29.97 "Hg10 mi
9:53 PM79 °FSunny.7 mph50%29.96 "Hg10 mi
8:53 PM82 °FSunny.7 mph48%29.93 "Hg10 mi
7:53 PM87 °FSunny.12 mph39%29.91 "Hg10 mi
6:53 PM89 °FSunny.14 mph38%29.90 "Hg10 mi
5:53 PM90 °FSunny.16 mph38%29.89 "Hg10 mi
4:53 PM90 °FPassing clouds.12 mph38%29.90 "Hg10 mi
3:53 PM92 °FPartly sunny.16 mph37%29.90 "Hg10 mi
2:53 PM89 °FScattered clouds.12 mph41%29.91 "Hg10 mi
Weather by CustomWeather, © 2016

See weather overviewHow to use our weather pages